Date,TemperatureHighF,TemperatureAvgF,TemperatureLowF,DewpointHighF,DewpointAvgF,DewpointLowF,HumidityHigh,HumidityAvg,HumidityLow,PressureMaxIn,PressureMinIn,WindSpeedMaxMPH,WindSpeedAvgMPH,GustSpeedMaxMPH,PrecipitationSumIn
2013-2-3,22,17,10,18,12,5,85,79,74,30.06,29.93,0,0,0,0.00
2013-2-4,36,28,20,28,21,14,84,76,67,30.05,29.76,0,0,0,0.01
2013-2-5,35,28,18,31,24,16,92,83,67,29.99,29.78,0,0,0,0.00
2013-2-6,44,33,28,26,23,19,84,68,45,30.22,30.00,0,0,0,0.00
2013-2-7,54,39,30,40,32,26,96,77,51,30.13,29.74,0,0,0,0.07
2013-2-8,38,33,29,37,28,21,96,80,63,30.32,29.76,0,0,0,0.01
2013-2-9,42,33,19,28,23,16,92,69,54,30.38,30.22,0,0,0,0.00
2013-2-10,47,41,32,42,35,24,88,79,68,30.12,29.64,0,0,0,0.10
2013-2-11,49,42,35,48,36,25,95,79,68,29.79,29.58,9,2,25,0.09
2013-2-12,42,32,28,30,26,23,86,78,60,30.08,29.93,0,0,0,0.00
2013-2-13,49,33,24,29,26,20,91,77,45,29.90,29.72,0,0,0,0.01
2013-2-14,49,38,32,38,32,28,94,81,63,29.92,29.71,0,0,0,0.00
2013-2-15,33,29,20,30,24,14,92,80,57,30.13,29.92,0,0,0,0.02
2013-2-16,25,21,18,19,12,6,86,68,50,30.12,30.06,0,0,0,0.00
2013-2-17,38,22,10,15,10,4,81,62,34,30.21,30.10,4,1,10,0.00
2013-2-18,58,40,24,42,29,14,91,65,51,30.10,29.48,11,5,30,0.12
2013-2-19,44,25,20,43,21,13,95,83,73,29.87,29.45,19,9,24,0.07
2013-2-20,23,18,10,15,10,3,79,71,63,30.31,30.10,9,2,16,0.00
2013-2-21,25,23,20,18,16,14,77,75,73,30.32,30.28,10,1,11,0.00
2013-2-22,35,31,25,34,30,22,97,93,85,30.00,29.81,10,4,28,0.15
2013-2-23,30,27,23,26,22,20,89,83,77,29.95,29.91,9,3,12,0.00
2013-2-24,38,28,19,26,21,16,90,75,57,30.12,29.94,3,1,10,0.04
2013-2-25,43,32,22,29,25,19,90,74,55,30.15,29.89,8,3,17,0.02
2013-2-26,34,33,32,31,28,25,94,81,72,29.87,29.48,13,6,29,0.60
2013-2-27,36,33,31,35,32,29,98,95,92,29.62,29.41,2,0,4,0.02
2013-2-28,38,34,32,34,32,29,97,92,83,29.93,29.60,0,0,0,0.02